EN

Hourly Weather Allmend

Today, 16 January, Saturday

Time Temperature Precipitation Wind Pressure Humidity
00:00 -8°C° 0 mm 1 mps 693 mmHg 92%
01:00 -8°C° 0 mm 1 mps 693 mmHg 91%
02:00 -8°C° 0 mm 1 mps 693 mmHg 90%
03:00 -9°C° 0 mm 1 mps 693 mmHg 88%
04:00 -9°C° 0 mm 1 mps 693 mmHg 86%
05:00 -9°C° 0 mm 1 mps 693 mmHg 84%
06:00 -9°C° 0 mm 1 mps 693 mmHg 82%
07:00 -10°C° 0 mm 1 mps 693 mmHg 81%
08:00 -8°C° 0 mm 0 mps 693 mmHg 81%
09:00 -7°C° 0 mm 0 mps 693 mmHg 80%
10:00 -6°C° 0 mm 0 mps 694 mmHg 80%
11:00 -5°C° 0 mm 0 mps 693 mmHg 78%
12:00 -3°C° 0 mm 0 mps 693 mmHg 76%
13:00 -2°C° 0 mm 0 mps 693 mmHg 74%
14:00 -2°C° 0 mm 0 mps 692 mmHg 78%
15:00 -3°C° 0 mm 0 mps 692 mmHg 81%
16:00 -3°C° 0 mm 0 mps 692 mmHg 85%
17:00 -3°C° 0 mm 1 mps 691 mmHg 84%
18:00 -4°C° 0 mm 1 mps 691 mmHg 82%
19:00 -4°C° 0 mm 1 mps 691 mmHg 81%
20:00 -4°C° 0 mm 1 mps 691 mmHg 80%
21:00 -3°C° 0 mm 1 mps 691 mmHg 80%
22:00 -2°C° 0 mm 1 mps 691 mmHg 80%
23:00 -2°C° 0.1 mm 1 mps 690 mmHg 82%

Tomorrow, 17 January, Sunday

Time Temperature Precipitation Wind Pressure Humidity
00:00 -4°C° 0.1 mm 2 mps 690 mmHg 84%
01:00 -4°C° 0.1 mm 2 mps 689 mmHg 86%
02:00 -3°C° 0.7 mm 2 mps 689 mmHg 90%
03:00 -3°C° 0.7 mm 2 mps 688 mmHg 93%
04:00 0°C° 0.7 mm 1 mps 688 mmHg 97%
05:00 -2°C° 0.5 mm 2 mps 688 mmHg 97%
06:00 -2°C° 0.5 mm 2 mps 688 mmHg 97%
07:00 -1°C° 0.5 mm 2 mps 688 mmHg 97%
08:00 -1°C° 0.3 mm 3 mps 688 mmHg 97%
09:00 -1°C° 0.3 mm 3 mps 688 mmHg 97%
10:00 -1°C° 0.3 mm 3 mps 688 mmHg 97%
11:00 -1°C° 0.7 mm 3 mps 688 mmHg 97%
12:00 -1°C° 0.7 mm 3 mps 689 mmHg 98%
13:00 0°C° 0.7 mm 3 mps 689 mmHg 98%
14:00 -1°C° 1.3 mm 3 mps 689 mmHg 98%
15:00 -1°C° 1.3 mm 3 mps 689 mmHg 98%
16:00 -1°C° 1.3 mm 2 mps 689 mmHg 98%
17:00 -2°C° 0.9 mm 2 mps 690 mmHg 98%
18:00 -2°C° 0.9 mm 2 mps 691 mmHg 98%
19:00 -2°C° 0.9 mm 2 mps 692 mmHg 98%
20:00 -1°C° 0.2 mm 1 mps 692 mmHg 97%
21:00 -1°C° 0.2 mm 1 mps 693 mmHg 97%
22:00 -2°C° 0.2 mm 1 mps 693 mmHg 96%
23:00 -2°C° 0.1 mm 1 mps 693 mmHg 96%

Day after tomorrow, 18 January, Monday

Time Temperature Precipitation Wind Pressure Humidity
00:00 -3°C° 0.1 mm 1 mps 693 mmHg 95%
01:00 -3°C° 0.1 mm 1 mps 694 mmHg 95%
02:00 -4°C° 0 mm 1 mps 694 mmHg 94%
03:00 -4°C° 0 mm 1 mps 694 mmHg 94%
04:00 -4°C° 0 mm 1 mps 694 mmHg 93%
05:00 -4°C° 0 mm 1 mps 694 mmHg 94%
06:00 -4°C° 0 mm 1 mps 694 mmHg 94%
07:00 -4°C° 0 mm 1 mps 695 mmHg 94%
08:00 -3°C° 0 mm 1 mps 695 mmHg 93%
09:00 -3°C° 0 mm 1 mps 695 mmHg 92%
10:00 -2°C° 0 mm 1 mps 696 mmHg 91%
11:00 -1°C° 0 mm 1 mps 695 mmHg 89%
12:00 -1°C° 0 mm 0 mps 695 mmHg 88%
13:00 0°C° 0 mm 0 mps 695 mmHg 87%
14:00 0°C° 0 mm 0 mps 695 mmHg 89%
15:00 -1°C° 0 mm 0 mps 694 mmHg 91%
16:00 -1°C° 0 mm 0 mps 694 mmHg 93%
17:00 -1°C° 0 mm 1 mps 694 mmHg 91%
18:00 -2°C° 0 mm 1 mps 694 mmHg 90%
19:00 -4°C° 0 mm 1 mps 695 mmHg 88%
20:00 -4°C° 0 mm 1 mps 694 mmHg 85%
21:00 -4°C° 0 mm 1 mps 694 mmHg 82%
22:00 -4°C° 0 mm 1 mps 694 mmHg 79%
23:00 -4°C° 0 mm 1 mps 694 mmHg 77%

19 January, Tuesday

Time Temperature Precipitation Wind Pressure Humidity
00:00 -4°C° 0 mm 1 mps 694 mmHg 75%
01:00 -4°C° 0 mm 1 mps 693 mmHg 73%
02:00 -4°C° 0 mm 1 mps 693 mmHg 73%
03:00 -3°C° 0 mm 1 mps 692 mmHg 72%
04:00 -3°C° 0 mm 1 mps 692 mmHg 71%
05:00 -3°C° 0 mm 1 mps 692 mmHg 71%
06:00 -5°C° 0 mm 2 mps 691 mmHg 70%
07:00 -5°C° 0 mm 2 mps 691 mmHg 69%
08:00 -4°C° 0 mm 2 mps 691 mmHg 70%
09:00 0°C° 0 mm 1 mps 691 mmHg 71%
10:00 +1°C° 0 mm 1 mps 691 mmHg 73%
11:00 +2°C° 0 mm 1 mps 691 mmHg 77%
12:00 +3°C° 0 mm 1 mps 691 mmHg 82%
13:00 +4°C° 0 mm 1 mps 690 mmHg 87%
14:00 +4°C° 0 mm 1 mps 690 mmHg 86%
15:00 +3°C° 0 mm 1 mps 689 mmHg 84%
16:00 +3°C° 0 mm 1 mps 689 mmHg 83%
17:00 +2°C° 0 mm 1 mps 689 mmHg 80%
18:00 +1°C° 0 mm 1 mps 689 mmHg 77%
19:00 -2°C° 0 mm 2 mps 689 mmHg 74%
20:00 -2°C° 0 mm 2 mps 689 mmHg 74%
21:00 -3°C° 0 mm 2 mps 689 mmHg 73%
22:00 -3°C° 0 mm 2 mps 689 mmHg 72%
23:00 -3°C° 0 mm 2 mps 688 mmHg 72%

20 January, Wednesday

Time Temperature Precipitation Wind Pressure Humidity
00:00 -3°C° 0 mm 2 mps 688 mmHg 72%
01:00 -3°C° 0 mm 2 mps 688 mmHg 71%
02:00 -3°C° 0 mm 2 mps 687 mmHg 72%
03:00 -3°C° 0 mm 2 mps 687 mmHg 72%
04:00 -3°C° 0 mm 2 mps 687 mmHg 73%
05:00 -3°C° 0 mm 2 mps 686 mmHg 73%
06:00 -3°C° 0 mm 2 mps 686 mmHg 73%
07:00 -3°C° 0 mm 2 mps 686 mmHg 72%
08:00 -2°C° 0 mm 2 mps 686 mmHg 73%
09:00 -1°C° 0 mm 2 mps 685 mmHg 74%
10:00 -1°C° 0 mm 2 mps 685 mmHg 75%
11:00 +1°C° 0 mm 2 mps 685 mmHg 78%
12:00 +2°C° 0 mm 2 mps 684 mmHg 80%
13:00 +4°C° 0 mm 2 mps 684 mmHg 83%
14:00 +3°C° 0 mm 2 mps 683 mmHg 83%
15:00 +3°C° 0 mm 2 mps 683 mmHg 83%
16:00 +1°C° 0 mm 3 mps 682 mmHg 83%
17:00 0°C° 0 mm 3 mps 682 mmHg 82%
18:00 -1°C° 0 mm 3 mps 682 mmHg 81%
19:00 -2°C° 0 mm 3 mps 682 mmHg 80%
20:00 -2°C° 0 mm 3 mps 681 mmHg 80%
21:00 -2°C° 0 mm 3 mps 681 mmHg 80%
22:00 -2°C° 0 mm 3 mps 681 mmHg 80%
23:00 -1°C° 0 mm 3 mps 681 mmHg 80%

21 January, Thursday

Time Temperature Precipitation Wind Pressure Humidity
00:00 -1°C° 0 mm 3 mps 681 mmHg 80%
01:00 -1°C° 0 mm 3 mps 681 mmHg 80%
02:00 -1°C° 0 mm 3 mps 680 mmHg 80%
03:00 -1°C° 0 mm 3 mps 680 mmHg 80%
04:00 -1°C° 0 mm 3 mps 680 mmHg 79%
05:00 -1°C° 0 mm 3 mps 680 mmHg 80%
06:00 -1°C° 0 mm 3 mps 681 mmHg 81%
07:00 -1°C° 0 mm 3 mps 681 mmHg 82%
08:00 +1°C° 0.2 mm 2 mps 681 mmHg 84%
09:00 +1°C° 0.2 mm 2 mps 681 mmHg 86%
10:00 +2°C° 0.2 mm 2 mps 682 mmHg 88%
11:00 +2°C° 0.3 mm 2 mps 682 mmHg 90%
12:00 +2°C° 0.3 mm 2 mps 682 mmHg 93%
13:00 +4°C° 0.3 mm 1 mps 682 mmHg 95%
14:00 +4°C° 0 mm 1 mps 682 mmHg 95%
15:00 +4°C° 0 mm 1 mps 682 mmHg 94%
16:00 +4°C° 0 mm 1 mps 681 mmHg 94%
17:00 +3°C° 0 mm 1 mps 681 mmHg 91%
18:00 +2°C° 0 mm 1 mps 681 mmHg 89%
19:00 -1°C° 0 mm 2 mps 681 mmHg 86%
20:00 -1°C° 0 mm 2 mps 680 mmHg 85%
21:00 -1°C° 0 mm 2 mps 680 mmHg 84%
22:00 -1°C° 0 mm 2 mps 679 mmHg 82%
23:00 -1°C° 0 mm 2 mps 679 mmHg 82%
Show more